Time,TemperatureF,DewpointF,PressureIn,WindDirection,WindDirectionDegrees,WindSpeedMPH,WindSpeedGustMPH,Humidity,HourlyPrecipIn,Conditions,Clouds,dailyrainin,SolarRadiationWatts/m^2,SoftwareType,DateUTC
2013-02-05 00:04:00,65.0,63.0,29.82,SSE,165,0.0,-999.0,93,-99.99,,,0.00,0,weatherlink.com 1.10,2013-02-05 06:04:00,
2013-02-05 00:19:00,64.5,63.0,29.82,ESE,112,1.0,-999.0,94,-99.99,,,0.00,0,weatherlink.com 1.10,2013-02-05 06:19:00,
2013-02-05 00:34:00,64.2,63.0,29.82,SE,130,1.0,-999.0,94,-99.99,,,0.00,0,weatherlink.com 1.10,2013-02-05 06:34:00,
2013-02-05 00:49:00,63.9,62.0,29.82,SSE,147,1.0,-999.0,94,-99.99,,,0.00,0,weatherlink.com 1.10,2013-02-05 06:49:00,
2013-02-05 01:04:00,63.5,62.0,29.82,SSE,148,0.0,-999.0,94,-99.99,,,0.00,0,weatherlink.com 1.10,2013-02-05 07:04:00,
2013-02-05 01:19:00,63.2,62.0,29.82,SSE,148,0.0,-999.0,94,-99.99,,,0.00,0,weatherlink.com 1.10,2013-02-05 07:19:00,
2013-02-05 01:34:00,62.9,62.0,29.81,SSE,148,0.0,-999.0,95,-99.99,,,0.00,0,weatherlink.com 1.10,2013-02-05 07:34:00,
2013-02-05 01:49:00,62.6,61.0,29.81,SSE,148,0.0,-999.0,95,-99.99,,,0.00,0,weatherlink.com 1.10,2013-02-05 07:49:00,
2013-02-05 02:04:00,62.5,61.0,29.81,SSE,148,0.0,-999.0,95,-99.99,,,0.00,0,weatherlink.com 1.10,2013-02-05 08:04:00,
2013-02-05 02:19:00,62.4,61.0,29.80,SSE,148,0.0,-999.0,95,-99.99,,,0.00,0,weatherlink.com 1.10,2013-02-05 08:19:00,
2013-02-05 02:34:00,62.2,61.0,29.80,SSE,148,0.0,-999.0,95,-99.99,,,0.00,0,weatherlink.com 1.10,2013-02-05 08:34:00,
2013-02-05 02:49:00,61.9,61.0,29.81,SSE,148,0.0,-999.0,95,-99.99,,,0.00,0,weatherlink.com 1.10,2013-02-05 08:49:00,
2013-02-05 03:04:00,61.8,60.0,29.81,SSE,148,0.0,-999.0,95,-99.99,,,0.00,0,weatherlink.com 1.10,2013-02-05 09:04:00,
2013-02-05 03:19:00,61.7,61.0,29.81,SSE,148,0.0,-999.0,96,-99.99,,,0.00,0,weatherlink.com 1.10,2013-02-05 09:19:00,
2013-02-05 03:34:00,61.3,60.0,29.81,SSE,148,0.0,-999.0,95,-99.99,,,0.00,0,weatherlink.com 1.10,2013-02-05 09:34:00,
2013-02-05 03:49:00,61.0,60.0,29.82,SSE,148,0.0,-999.0,96,-99.99,,,0.00,0,weatherlink.com 1.10,2013-02-05 09:49:00,
2013-02-05 04:03:00,60.7,59.0,29.82,SSE,148,0.0,-999.0,95,-99.99,,,0.00,0,weatherlink.com 1.10,2013-02-05 10:03:00,
2013-02-05 04:19:00,60.2,59.0,29.82,SSE,148,0.0,-999.0,95,-99.99,,,0.00,0,weatherlink.com 1.10,2013-02-05 10:19:00,
2013-02-05 04:34:00,59.9,59.0,29.83,SSE,148,0.0,-999.0,96,-99.99,,,0.00,0,weatherlink.com 1.10,2013-02-05 10:34:00,
2013-02-05 04:49:00,59.9,59.0,29.82,SSE,148,0.0,-999.0,96,-99.99,,,0.00,0,weatherlink.com 1.10,2013-02-05 10:49:00,
2013-02-05 05:04:00,59.9,59.0,29.83,SSE,148,0.0,-999.0,96,-99.99,,,0.00,0,weatherlink.com 1.10,2013-02-05 11:04:00,
2013-02-05 05:19:00,59.9,59.0,29.83,SSE,148,0.0,-999.0,96,-99.99,,,0.00,0,weatherlink.com 1.10,2013-02-05 11:19:00,
2013-02-05 05:34:00,59.7,59.0,29.83,SSE,148,0.0,-999.0,96,-99.99,,,0.00,0,weatherlink.com 1.10,2013-02-05 11:34:00,
2013-02-05 05:49:00,59.5,58.0,29.84,SSE,148,0.0,-999.0,96,-99.99,,,0.00,0,weatherlink.com 1.10,2013-02-05 11:49:00,
2013-02-05 06:04:00,59.5,58.0,29.84,SSE,148,0.0,-999.0,96,-99.99,,,0.00,0,weatherlink.com 1.10,2013-02-05 12:04:00,
2013-02-05 06:19:00,59.6,59.0,29.84,SSE,148,0.0,-999.0,96,-99.99,,,0.00,0,weatherlink.com 1.10,2013-02-05 12:19:00,
2013-02-05 06:34:00,59.9,59.0,29.84,SSE,148,0.0,-999.0,97,-99.99,,,0.00,0,weatherlink.com 1.10,2013-02-05 12:34:00,
2013-02-05 06:49:00,59.8,59.0,29.86,SSE,148,0.0,-999.0,96,-99.99,,,0.00,0,weatherlink.com 1.10,2013-02-05 12:49:00,
2013-02-05 07:04:00,60.0,59.0,29.86,SSE,148,0.0,-999.0,97,-99.99,,,0.00,0,weatherlink.com 1.10,2013-02-05 13:04:00,
2013-02-05 07:19:00,60.2,59.0,29.86,SSE,148,0.0,-999.0,97,-99.99,,,0.00,5,weatherlink.com 1.10,2013-02-05 13:19:00,
2013-02-05 07:34:00,60.1,59.0,29.86,SSE,148,0.0,-999.0,97,-99.99,,,0.00,16,weatherlink.com 1.10,2013-02-05 13:34:00,
2013-02-05 07:49:00,60.2,59.0,29.87,SSE,148,0.0,-999.0,97,-99.99,,,0.00,60,weatherlink.com 1.10,2013-02-05 13:49:00,
2013-02-05 08:04:00,60.9,60.0,29.87,SSE,148,0.0,-999.0,97,-99.99,,,0.00,84,weatherlink.com 1.10,2013-02-05 14:04:00,
2013-02-05 08:19:00,62.1,62.0,29.88,SSE,148,0.0,-999.0,98,-99.99,,,0.00,91,weatherlink.com 1.10,2013-02-05 14:19:00,
2013-02-05 08:34:00,63.7,63.0,29.88,SSE,148,0.0,-999.0,98,-99.99,,,0.00,114,weatherlink.com 1.10,2013-02-05 14:34:00,
2013-02-05 08:49:00,65.0,65.0,29.89,SE,138,0.0,-999.0,98,-99.99,,,0.00,67,weatherlink.com 1.10,2013-02-05 14:49:00,
2013-02-05 09:04:00,65.7,65.0,29.89,South,169,2.0,-999.0,98,-99.99,,,0.00,158,weatherlink.com 1.10,2013-02-05 15:04:00,
2013-02-05 09:19:00,66.5,66.0,29.90,SSW,211,4.0,-999.0,98,-99.99,,,0.00,158,weatherlink.com 1.10,2013-02-05 15:19:00,
2013-02-05 09:34:00,67.0,67.0,29.90,SSE,155,2.0,-999.0,98,-99.99,,,0.00,174,weatherlink.com 1.10,2013-02-05 15:34:00,
2013-02-05 09:49:00,67.3,67.0,29.90,SW,220,4.0,-999.0,98,-99.99,,,0.00,250,weatherlink.com 1.10,2013-02-05 15:49:00,
2013-02-05 10:04:00,68.0,68.0,29.91,South,180,2.0,-999.0,98,-99.99,,,0.01,241,weatherlink.com 1.10,2013-02-05 16:04:00,
2013-02-05 10:20:00,68.9,68.0,29.91,SW,219,5.0,-999.0,97,-99.99,,,0.01,524,weatherlink.com 1.10,2013-02-05 16:20:00,
2013-02-05 10:34:00,71.1,69.0,29.91,SSW,209,3.0,-999.0,94,-99.99,,,0.01,594,weatherlink.com 1.10,2013-02-05 16:34:00,
2013-02-05 10:50:00,72.7,69.0,29.90,SSW,207,2.0,-999.0,87,-99.99,,,0.01,292,weatherlink.com 1.10,2013-02-05 16:50:00,
2013-02-05 11:05:00,74.4,69.0,29.90,WSW,245,3.0,-999.0,84,-99.99,,,0.01,673,weatherlink.com 1.10,2013-02-05 17:05:00,
2013-02-05 11:20:00,76.0,69.0,29.90,SW,217,3.0,-999.0,79,-99.99,,,0.01,427,weatherlink.com 1.10,2013-02-05 17:20:00,
2013-02-05 11:35:00,77.7,68.0,29.89,West,277,3.0,-999.0,72,-99.99,,,0.01,701,weatherlink.com 1.10,2013-02-05 17:35:00,
2013-02-05 11:50:00,78.2,68.0,29.89,WNW,301,0.0,-999.0,71,-99.99,,,0.01,705,weatherlink.com 1.10,2013-02-05 17:50:00,
2013-02-05 12:05:00,78.8,67.0,29.88,NW,321,0.0,-999.0,68,-99.99,,,0.01,707,weatherlink.com 1.10,2013-02-05 18:05:00,
2013-02-05 12:20:00,80.0,67.0,29.88,SW,230,0.0,-999.0,65,-99.99,,,0.01,719,weatherlink.com 1.10,2013-02-05 18:20:00,
2013-02-05 12:35:00,80.8,66.0,29.87,NW,304,0.0,-999.0,62,-99.99,,,0.01,659,weatherlink.com 1.10,2013-02-05 18:35:00,
2013-02-05 13:05:00,82.8,68.0,29.86,NNE,33,5.0,-999.0,62,-99.99,,,0.01,939,weatherlink.com 1.10,2013-02-05 19:05:00,
2013-02-05 13:20:00,84.1,70.0,29.84,SSE,156,0.0,-999.0,62,-99.99,,,0.01,789,weatherlink.com 1.10,2013-02-05 19:20:00,
2013-02-05 13:35:00,83.5,70.0,29.84,ESE,107,4.0,-999.0,63,-99.99,,,0.01,773,weatherlink.com 1.10,2013-02-05 19:35:00,
2013-02-05 13:50:00,82.3,70.0,29.83,South,173,2.0,-999.0,66,-99.99,,,0.01,807,weatherlink.com 1.10,2013-02-05 19:50:00,
2013-02-05 14:05:00,82.0,70.0,29.83,ESE,121,1.0,-999.0,66,-99.99,,,0.01,580,weatherlink.com 1.10,2013-02-05 20:05:00,
2013-02-05 14:20:00,80.2,69.0,29.82,ESE,110,8.0,-999.0,69,-99.99,,,0.01,552,weatherlink.com 1.10,2013-02-05 20:20:00,
2013-02-05 14:36:00,78.9,70.0,29.83,East,92,1.0,-999.0,73,-99.99,,,0.01,803,weatherlink.com 1.10,2013-02-05 20:36:00,
2013-02-05 14:50:00,78.7,69.0,29.82,ESE,109,3.0,-999.0,72,-99.99,,,0.01,427,weatherlink.com 1.10,2013-02-05 20:50:00,
2013-02-05 15:05:00,78.2,69.0,29.82,ESE,110,3.0,-999.0,73,-99.99,,,0.01,592,weatherlink.com 1.10,2013-02-05 21:05:00,
2013-02-05 15:20:00,78.3,69.0,29.82,ESE,117,6.0,-999.0,72,-99.99,,,0.01,434,weatherlink.com 1.10,2013-02-05 21:20:00,
2013-02-05 15:36:00,78.6,69.0,29.82,East,95,5.0,-999.0,72,-99.99,,,0.01,578,weatherlink.com 1.10,2013-02-05 21:36:00,
2013-02-05 15:51:00,79.0,68.0,29.81,ESE,121,2.0,-999.0,69,-99.99,,,0.01,485,weatherlink.com 1.10,2013-02-05 21:51:00,
2013-02-05 16:05:00,78.5,68.0,29.81,East,94,6.0,-999.0,69,-99.99,,,0.01,392,weatherlink.com 1.10,2013-02-05 22:05:00,
2013-02-05 16:20:00,77.5,68.0,29.81,East,93,1.0,-999.0,72,-99.99,,,0.01,320,weatherlink.com 1.10,2013-02-05 22:20:00,
2013-02-05 16:35:00,76.6,69.0,29.80,SE,129,5.0,-999.0,76,-99.99,,,0.01,243,weatherlink.com 1.10,2013-02-05 22:35:00,
2013-02-05 16:50:00,75.2,69.0,29.80,ENE,61,5.0,-999.0,80,-99.99,,,0.01,220,weatherlink.com 1.10,2013-02-05 22:50:00,
2013-02-05 17:06:00,74.2,68.0,29.81,SE,126,2.0,-999.0,81,-99.99,,,0.01,54,weatherlink.com 1.10,2013-02-05 23:06:00,
2013-02-05 17:21:00,73.2,68.0,29.82,East,83,5.0,-999.0,84,-99.99,,,0.01,39,weatherlink.com 1.10,2013-02-05 23:21:00,
2013-02-05 17:35:00,72.1,67.0,29.82,ESE,113,6.0,-999.0,85,-99.99,,,0.01,47,weatherlink.com 1.10,2013-02-05 23:35:00,
2013-02-05 17:50:00,71.2,67.0,29.82,SE,124,5.0,-999.0,87,-99.99,,,0.01,33,weatherlink.com 1.10,2013-02-05 23:50:00,
2013-02-05 18:05:00,70.4,67.0,29.82,SE,134,3.0,-999.0,89,-99.99,,,0.01,9,weatherlink.com 1.10,2013-02-06 00:05:00,
2013-02-05 18:21:00,69.8,67.0,29.82,SE,142,2.0,-999.0,90,-99.99,,,0.01,0,weatherlink.com 1.10,2013-02-06 00:21:00,
2013-02-05 18:35:00,69.4,67.0,29.83,SSE,153,4.0,-999.0,91,-99.99,,,0.01,0,weatherlink.com 1.10,2013-02-06 00:35:00,
2013-02-05 18:50:00,69.1,67.0,29.84,SSE,165,2.0,-999.0,92,-99.99,,,0.01,0,weatherlink.com 1.10,2013-02-06 00:50:00,
2013-02-05 19:05:00,69.1,67.0,29.84,SE,133,3.0,-999.0,93,-99.99,,,0.01,0,weatherlink.com 1.10,2013-02-06 01:05:00,
2013-02-05 19:20:00,69.2,67.0,29.84,SSE,159,3.0,-999.0,93,-99.99,,,0.01,0,weatherlink.com 1.10,2013-02-06 01:20:00,
2013-02-05 19:35:00,69.2,68.0,29.85,ESE,123,4.0,-999.0,94,-99.99,,,0.01,0,weatherlink.com 1.10,2013-02-06 01:35:00,
2013-02-05 19:51:00,69.2,68.0,29.86,ENE,74,3.0,-999.0,94,-99.99,,,0.01,0,weatherlink.com 1.10,2013-02-06 01:51:00,
2013-02-05 20:06:00,69.3,68.0,29.86,SE,124,4.0,-999.0,94,-99.99,,,0.01,0,weatherlink.com 1.10,2013-02-06 02:06:00,
2013-02-05 20:20:00,69.3,68.0,29.86,ESE,116,4.0,-999.0,94,-99.99,,,0.01,0,weatherlink.com 1.10,2013-02-06 02:20:00,
2013-02-05 20:36:00,69.4,68.0,29.87,SE,134,5.0,-999.0,94,-99.99,,,0.01,0,weatherlink.com 1.10,2013-02-06 02:36:00,
2013-02-05 20:51:00,69.4,68.0,29.87,ESE,102,1.0,-999.0,94,-99.99,,,0.01,0,weatherlink.com 1.10,2013-02-06 02:51:00,
2013-02-05 21:05:00,69.4,68.0,29.87,East,86,0.0,-999.0,94,-99.99,,,0.01,0,weatherlink.com 1.10,2013-02-06 03:05:00,
2013-02-05 21:20:00,69.3,68.0,29.86,ESE,119,2.0,-999.0,94,-99.99,,,0.01,0,weatherlink.com 1.10,2013-02-06 03:20:00,
2013-02-05 21:35:00,69.2,68.0,29.85,ESE,120,1.0,-999.0,94,-99.99,,,0.01,0,weatherlink.com 1.10,2013-02-06 03:35:00,
2013-02-05 21:51:00,69.1,68.0,29.85,ESE,109,1.0,-999.0,95,-99.99,,,0.01,0,weatherlink.com 1.10,2013-02-06 03:51:00,
2013-02-05 22:06:00,68.9,68.0,29.86,SSE,156,4.0,-999.0,95,-99.99,,,0.01,0,weatherlink.com 1.10,2013-02-06 04:06:00,
2013-02-05 22:21:00,68.7,67.0,29.87,SSE,163,5.0,-999.0,95,-99.99,,,0.01,0,weatherlink.com 1.10,2013-02-06 04:21:00,
2013-02-05 22:36:00,68.7,67.0,29.87,SSE,162,1.0,-999.0,95,-99.99,,,0.01,0,weatherlink.com 1.10,2013-02-06 04:36:00,
2013-02-05 22:51:00,68.8,67.0,29.87,SE,145,4.0,-999.0,95,-99.99,,,0.01,0,weatherlink.com 1.10,2013-02-06 04:51:00,
2013-02-05 23:06:00,68.7,67.0,29.87,East,101,3.0,-999.0,95,-99.99,,,0.01,0,weatherlink.com 1.10,2013-02-06 05:06:00,
2013-02-05 23:21:00,68.7,67.0,29.87,SW,227,5.0,-999.0,95,-99.99,,,0.01,0,weatherlink.com 1.10,2013-02-06 05:21:00,
2013-02-05 23:36:00,68.8,67.0,29.88,SSE,160,4.0,-999.0,95,-99.99,,,0.01,0,weatherlink.com 1.10,2013-02-06 05:36:00,
2013-02-05 23:51:00,69.0,68.0,29.88,East,79,1.0,-999.0,96,-99.99,,,0.01,0,weatherlink.com 1.10,2013-02-06 05:51:00,